[Iaude] MPEC D11: 2018 CD14 [a=2.32,e=0.49,i=11.1,H=24.0]

mpec at mpcdb1.cfa.harvard.edu mpec at mpcdb1.cfa.harvard.edu
Fri Feb 16 15:27:16 EST 2018


M.P.E.C. 2018-D11                                Issued 2018 Feb. 16, 20:21 UT
 
     The Minor Planet Electronic Circulars contain information on unusual
         minor planets and routine data on comets.  They are published
    on behalf of Division F of the International Astronomical Union by the
          Minor Planet Center, Smithsonian Astrophysical Observatory,
                          Cambridge, MA 02138, U.S.A.

             Prepared using the Tamkin Foundation Computer Network

                              MPC at CFA.HARVARD.EDU
            URL https://www.minorplanetcenter.net/    ISSN 1523-6714


                                   2018 CD14
 
Observations:
     K18C14D  C2018 01 13.47356 08 53 18.734+38 57 47.91         22.6 wUED011F51
     K18C14D  C2018 01 13.48423 08 53 18.895+38 57 32.35         22.2 wUED011F51
     K18C14D  C2018 01 13.49490 08 53 19.052+38 57 17.32         22.4 wUED011F51
     K18C14D  C2018 01 20.37802 08 55 42.063+35 41 56.34         22.7 wUED011F51
     K18C14D  C2018 01 20.38978 08 55 42.068+35 41 33.28         21.9 wUED011F51
     K18C14D  C2018 01 20.40152 08 55 42.080+35 41 10.33         22.9 wUED011F51
     K18C14D  C2018 01 20.41329 08 55 42.076+35 40 47.16         22.7 wUED011F51
     K18C14D  C2018 01 23.40833 08 56 18.090+33 53 12.26         22.6 wUED011F51
     K18C14D  C2018 01 23.41997 08 56 18.034+33 52 45.77         22.3 wUED011F51
     K18C14D  C2018 01 23.43161 08 56 17.962+33 52 19.67         22.9 wUED011F51
     K18C14D  C2018 01 23.44324 08 56 17.884+33 51 52.91         22.5 wUED011F51
     K18C14D* C2018 02 12.34665 08 58 53.266+16 06 42.06         21.6 wUED011F51
     K18C14D  C2018 02 12.35987 08 58 53.229+16 05 50.62         21.6 wUED011F51
     K18C14D  C2018 02 12.37315 08 58 53.208+16 04 59.39         21.8 wUED011F51
     K18C14D  C2018 02 12.38655 08 58 53.171+16 04 07.41         21.5 wUED011F51
     K18C14D  C2018 02 12.47042 08 58 52.963+15 58 39.14         21.9 wUED011F51
     K18C14D  C2018 02 12.48220 08 58 52.947+15 57 53.13         21.7 wUED011F51
     K18C14D  C2018 02 12.49399 08 58 52.929+15 57 06.85         21.5 wUED011F51
     K18C14D _C2018 02 13.26563108 59 08.087+15 06 45.61         20.9 GUED011568
     K18C14D _C2018 02 13.26667408 59 08.089+15 06 41.58         21.4 GUED011568
     K18C14D _C2018 02 13.26762508 59 08.092+15 06 37.90         21.6 GUED011568
     K18C14D KC2018 02 13.30145408 59 05.38 +15 04 13.9          21.9 VuED011H21
     K18C14D KC2018 02 13.31555608 59 05.43 +15 03 18.3          21.7 VuED011H21
     K18C14D KC2018 02 13.32813908 59 05.49 +15 02 28.3          21.9 VuED011H21
     K18C14D |C2018 02 15.09108 08 59 38.76 +13 07 29.7          21.6 GUED011807
     K18C14D |C2018 02 15.09557 08 59 38.78 +13 07 12.1          21.8 GUED011807
     K18C14D |C2018 02 15.10129 08 59 38.82 +13 06 49.6          21.4 GUED011807
 
Observer details:
568 Mauna Kea.  Observers R. J. Wainscoat, L. Wells.  Measurers M. Micheli,
    R. Weryk.  3.6-m Canada-France-Hawaii Telescope + CCD.
807 Cerro Tololo.  Observers T. Linder, R. Holmes.  1.00-m f/10.0 astrograph
    + CCD.
F51 Pan-STARRS 1, Haleakala.  Observers J. Bulger, T. Lowe, A. Schultz,
    M. Willman.  Measurers K. Chambers, S. Chastel, L. Denneau, H. Flewelling,
    M. Huber, E. Lilly, E. Magnier, R. Wainscoat, C. Waters, R. Weryk.  1.8-m
    Ritchey-Chretien + CCD.
H21 Astronomical Research Observatory, Westfield.  Observer R. Holmes.
    Measurers S. Foglia, L. Buzzi, T. Linder, R. Holmes.  0.76-m f/3.0
    astrograph + CCD.
 
Orbital elements:
2018 CD14                                                Earth MOID = 0.2014 AU
Epoch 2018 Mar. 23.0 TT = JDT 2458200.5                 MPC
M   8.24539              (2000.0)            P               Q
n   0.27885602     Peri.  189.30176     -0.86306907     -0.49001062
a   2.3203279      Node   320.58054     +0.47492498     -0.70476808
e   0.4881044      Incl.   11.12114     +0.17192451     -0.51302197
P   3.53           H   24.0           G   0.15           U   5
Residuals in seconds of arc
180113 F51  0.3-  0.4+    180123 F51  0.0   0.3+    180213 568  0.0   0.1+
180113 F51  0.0   0.2-    180123 F51  0.1-  0.0     180213 568  0.1-  0.1+
180113 F51  0.2+  0.2-    180212 F51  0.1+  0.1+    180213 568  0.1-  0.1+
180120 F51  0.0   0.0     180212 F51  0.1-  0.1-    180213 H21  0.3-  0.0
180120 F51  0.0   0.1-    180212 F51  0.0   0.1+    180213 H21  0.3-  0.2+
180120 F51  0.1+  0.1-    180212 F51  0.0   0.2+    180213 H21  0.2-  0.1-
180120 F51  0.1+  0.1-    180212 F51  0.2+  0.4-    180215 807  0.3-  0.1+
180123 F51  0.1-  0.0     180212 F51  0.2+  0.1-    180215 807  0.3-  0.1+
180123 F51  0.0   0.1-    180212 F51  0.1+  0.0     180215 807  0.1-  0.1+

Ephemeris:
2018 CD14                a,e,i = 2.32, 0.49, 11                  q = 1.1878
Date    TT    R. A. (2000) Decl.     Delta      r     Elong.  Phase     V
2018 01 17    08 54 42.8 +37 26 16   0.2802  1.2493   158.9    16.5    22.6
...
2018 02 01    08 57 17.0 +27 23 10   0.2264  1.2088   169.9     8.3    21.8
...
2018 02 09    08 58 12.3 +19 40 30   0.2111  1.1956   171.1     7.3    21.5
...
2018 02 15    08 59 35.9 +13 13 05   0.2065  1.1899   167.0    10.8    21.6
2018 02 16    08 59 55.6 +12 07 10   0.2064  1.1893   166.1    11.5    21.7
2018 02 17    09 00 17.4 +11 01 13   0.2064  1.1888   165.1    12.3    21.7
...
2018 02 23    09 03 15.0 +04 32 11   0.2098  1.1879   159.3    17.1    21.9
...
2018 03 03    09 09 28.8 -03 18 12   0.2228  1.1924   152.0    23.0    22.2
...
2018 03 18    09 27 53.1 -13 59 41   0.2689  1.2180   141.8    30.3    22.9

A. U. Tomatic                (C) Copyright 2018 MPC           M.P.E.C. 2018-D11



More information about the Iaude mailing list